Showing default

OPS 4467 B, 813

Orbit data source: Space-Track

OPS 4467 B, 813 is an American payload satellite in SSO that was launched on Thu, 18 Jun 1964 UTC via a THOR SLV-2 AGENA D launch vehicle from the Air Force Western Test Range (AFWTR). Payload-class satellites include a variety of spacecraft equipped with specific instruments for various scientific and technological missions. These include communications satellites like Starlink; space stations such as the ISS; scientific satellites like the Hubble; Earth observation satellites from companies like Planet Labs, Umbra, and HawkEye 360; GPS; miniature CubeSats for education and research; and military/defense satellites.

Loading next visibility...
Identifier
813, 1964-031B
Orbit
SSO
Country
Flag of USUS
Related business
Manufacturer
RCA/East Windsor
Mission
Spacecraft
Bus & Motor
P35, Unknown motor
Mass
50 kg wet, 50 kg dry
Launch date (UTC)
1964-06-18 (62 years ago)
Launch vehicle
THOR SLV-2 AGENA D
Launch site
Air Force Western Test Range (AFWTR)
Object type
Payload
Rocket body
Debris
Shape & HBR
Unknown
Radar Cross Section
Medium (>0.1 m² and <1 m²)

Expand to show TLE details & history
Last TLE update: 5 hours ago

TLE from 5 hours ago
0 OPS 4467 B
1   813U 64031B   26035.81776248  .00000117  00000-0  75009-4 0  9999
2   813  99.8050 173.3487 0005326 178.9201 181.1986 14.23680882196093
Epoch: 2026-02-04T19:37Z
TLE epoch observation values (Epoch: 2026-02-04T19:37:34.678Z)
Latitude
-0.00003°
Longitude
103.97532°
Altitude
819.643 km
Speed
7.441 km/s
True Right ascension
11h 33m 23s
True Declination
0° 00' 00"
Sunlit
Object was in full shadow at epoch
Visualization orbit readout
Latitude
Unknown
Longitude
Unknown
Altitude
Unknown
Speed
Unknown
Apparent Right ascension
Unknown
Apparent Declination
Unknown
Sunlit
N/A
Visualization observer readout
Local Sidereal Time
02:17:17
Azimuth
Unknown
Elevation
Unknown
Doppler factor
Unknown
Orbital elements
Apogee altitude
813.969 km
Perigee altitude
806.312 km
Semi-major axis
7,188.278 km
Eccentricity
0.00053
Inclination
99.805°
RAAN
173.3487°
Arg. of periapsis
178.9201°
True anomaly
181.19732°
Mean anomaly
181.1986°
Eccentric anomaly
181.19796°
Mean motion
3.56128 °/min
Orbital period
101.09 mins
BSTAR
0.000075009
Loading maneuver chart data...
Computing Atmospheric mass density...
Loading historical data...
Loading historical data...
Loading historical data...
Loading historical data...
Loading historical data...
Loading historical data...
Loading historical data...
Other satellites on launch #31 in the year 1964 (1964-06-18 UTC)

Documentation

Showing up to 5 results
|